This demonstration page uses our WeatherBlox Daily Observations layout. Learn more.

Left ArrowRight Arrow

39.12711, -84.51439

Hourly Observations for September 15, 2018

Temp ( °F °C ) Dew Point ( °F °C ) Humidity (%) Winds ( mph kmh ) Pressure ( in mb ) Visibility ( mi km ) Precip ( " mm )
12:53 am 00:53 Clear 73 22.8 72 22.2 96 96 NE 3 6 30.07 1018 10 16 0.00 0.00
1:53 am 01:53 Mostly Cloudy 74 23.3 72 22.2 94 94 NE 5 7 30.06 1018 10 16 0.00 0.00
2:53 am 02:53 Mostly Cloudy 74 23.3 72 22.2 94 94 ENE 3 6 30.06 1018 10 16 0.00 0.00
3:53 am 03:53 Clear 72 22.2 72 22.2 100 100 NE 3 6 30.06 1018 9 14 0.00 0.00
4:53 am 04:53 Clear 71 21.7 71 21.7 100 100 Calm 30.06 1018 8 13 0.00 0.00
5:53 am 05:53 Mostly Clear with Mist and Fog 70 21.1 70 21.1 100 100 NE 3 6 30.06 1018 6 10 0.00 0.00
6:53 am 06:53 Clear with Mist and Fog 69 20.6 69 20.6 100 100 Calm 30.06 1018 3 5 0.00 0.00
7:53 am 07:53 Partly Cloudy with Mist and Fog 69 20.6 69 20.6 100 100 NE 3 6 30.08 1019 4 6 0.00 0.00
8:28 am 08:28 Mostly Cloudy with Mist and Fog 71 21.7 71 21.7 100 100 ENE 3 6 30.09 1019 4 6 0.00 0.00
8:53 am 08:53 Cloudy with Mist and Fog 73 22.8 72 22.2 96 96 NNE 5 7 30.10 1019 6 10 0.00 0.00
9:15 am 09:15 Partly Cloudy 74 23.3 73 22.8 97 97 ENE 5 7 30.09 1019 7 11 0.00 0.00
9:53 am 09:53 Mostly Sunny 77 25 73 22.8 88 88 NNE 6 9 30.10 1019 10 16 0.00 0.00
10:53 am 10:53 Sunny 80 26.7 74 23.3 82 82 VRB 3 6 30.11 1020 10 16 0.00 0.00
11:53 am 11:53 Mostly Sunny 84 28.9 75 23.9 74 74 NNE 6 9 30.10 1019 10 16 0.00 0.00
12:53 pm 12:53 Partly Cloudy 85 29.4 74 23.3 70 70 ENE 7 11 30.09 1019 10 16 0.00 0.00
1:53 pm 13:53 Partly Cloudy 88 31.1 73 22.8 61 61 NE 9 15 30.07 1018 10 16 0.00 0.00
2:53 pm 14:53 Mostly Cloudy 89 31.7 73 22.8 59 59 ENE 8 13 30.05 1018 10 16 0.00 0.00
3:53 pm 15:53 Mostly Cloudy 89 31.7 74 23.3 61 61 NE 12 19 30.04 1017 10 16 0.00 0.00
4:53 pm 16:53 Sunny 89 31.7 71 21.7 55 55 ENE 13 20 30.03 1017 10 16 0.00 0.00
5:53 pm 17:53 Partly Cloudy 88 31.1 72 22.2 59 59 E 7 11 30.03 1017 10 16 0.00 0.00
6:53 pm 18:53 Mostly Sunny 86 30 72 22.2 63 63 E 3 6 30.04 1017 10 16 0.00 0.00
7:53 pm 19:53 Clear 80 26.7 73 22.8 79 79 Calm 30.04 1017 10 16 0.00 0.00
8:53 pm 20:53 Clear 74 23.3 73 22.8 97 97 Calm 30.05 1018 10 16 0.00 0.00
9:53 pm 21:53 Clear 73 22.8 72 22.2 96 96 Calm 30.06 1018 10 16 0.00 0.00
10:53 pm 22:53 Clear 71 21.7 71 21.7 100 100 Calm 30.06 1018 10 16 0.00 0.00
11:53 pm 23:53 Clear 72 22.2 71 21.7 97 97 NNE 5 7 30.06 1018 10 16 0.00 0.00

Powered by AerisWeather